STARLINK-35076

Last updated on Thu Oct 02 2025 00:02:05 GMT+0000 (Coordinated Universal Time)

1 65457U 25194Z 25274.47904825 -.00720538 00000+0 -14953-1 0 9996 2 65457 97.6012 126.8779 0003088 60.5942 299.5616 15.47910096 5655

Satellite not in orbit

STARLINK-35076